Time,TemperatureF,DewpointF,PressureIn,WindDirection,WindDirectionDegrees,WindSpeedMPH,WindSpeedGustMPH,Humidity,HourlyPrecipIn,Conditions,Clouds,dailyrainin,SoftwareType,DateUTC
2013-03-22 00:02:00,29.0,23.0,30.00,WNW,290,0.0,1.0,77,0.00,,,0.00,,2013-03-22 07:02:00,
2013-03-22 00:11:00,29.0,23.0,30.00,WNW,290,0.0,1.0,77,0.00,,,0.00,,2013-03-22 07:11:00,
2013-03-22 00:22:00,29.0,24.0,30.00,WNW,286,1.0,2.0,81,0.00,,,0.00,,2013-03-22 07:22:00,
2013-03-22 00:32:00,29.0,23.0,30.00,WSW,253,2.0,3.0,78,0.00,,,0.00,,2013-03-22 07:32:00,
2013-03-22 00:42:00,29.0,23.0,30.00,WSW,253,2.0,3.0,78,0.00,,,0.00,,2013-03-22 07:42:00,
2013-03-22 00:52:00,28.0,23.0,30.00,WSW,251,2.0,3.0,80,0.00,,,0.00,,2013-03-22 07:52:00,
2013-03-22 01:02:00,29.0,24.0,29.99,WNW,288,2.0,3.0,80,0.00,,,0.00,,2013-03-22 08:02:00,
2013-03-22 01:12:00,29.0,24.0,29.99,WNW,288,2.0,3.0,80,0.00,,,0.00,,2013-03-22 08:12:00,
2013-03-22 01:21:00,29.0,23.0,29.99,SW,230,3.0,4.0,79,0.00,,,0.00,,2013-03-22 08:21:00,
2013-03-22 01:31:00,28.0,23.0,30.00,NW,314,1.0,3.0,82,0.00,,,0.00,,2013-03-22 08:31:00,
2013-03-22 01:42:00,28.0,23.0,30.00,NW,314,1.0,3.0,82,0.00,,,0.00,,2013-03-22 08:42:00,
2013-03-22 01:51:00,27.0,23.0,30.00,NW,317,1.0,2.0,83,0.00,,,0.00,,2013-03-22 08:51:00,
2013-03-22 02:01:00,27.0,23.0,30.00,NW,317,1.0,2.0,83,0.00,,,0.00,,2013-03-22 09:01:00,
2013-03-22 02:11:00,27.0,23.0,30.00,NW,317,1.0,2.0,83,0.00,,,0.00,,2013-03-22 09:11:00,
2013-03-22 02:21:00,27.0,23.0,30.01,WSW,242,2.0,4.0,84,0.00,,,0.00,,2013-03-22 09:21:00,
2013-03-22 02:32:00,27.0,23.0,30.01,WSW,255,0.0,1.0,86,0.00,,,0.00,,2013-03-22 09:32:00,
2013-03-22 02:42:00,27.0,23.0,30.01,WSW,255,0.0,1.0,86,0.00,,,0.00,,2013-03-22 09:42:00,
2013-03-22 02:53:00,27.0,23.0,30.01,WSW,255,1.0,2.0,85,0.00,,,0.00,,2013-03-22 09:53:00,
2013-03-22 03:03:00,27.0,23.0,30.02,WSW,255,0.0,1.0,85,0.00,,,0.00,,2013-03-22 10:03:00,
2013-03-22 03:12:00,27.0,23.0,30.02,WSW,255,0.0,1.0,85,0.00,,,0.00,,2013-03-22 10:12:00,
2013-03-22 03:22:00,28.0,24.0,30.02,NNW,331,0.0,2.0,86,0.00,,,0.00,,2013-03-22 10:22:00,
2013-03-22 03:32:00,27.0,23.0,30.02,NNW,330,0.0,1.0,86,0.00,,,0.00,,2013-03-22 10:32:00,
2013-03-22 03:42:00,27.0,23.0,30.02,NNW,330,0.0,1.0,86,0.00,,,0.00,,2013-03-22 10:42:00,
2013-03-22 03:52:00,28.0,24.0,30.02,West,269,0.0,2.0,84,0.00,,,0.00,,2013-03-22 10:52:00,
2013-03-22 04:02:00,29.0,25.0,30.02,WNW,303,0.0,2.0,84,0.00,,,0.00,,2013-03-22 11:02:00,
2013-03-22 04:12:00,29.0,25.0,30.02,WNW,303,0.0,2.0,84,0.00,,,0.00,,2013-03-22 11:12:00,
2013-03-22 04:22:00,27.0,24.0,30.02,West,260,1.0,3.0,87,0.00,,,0.00,,2013-03-22 11:22:00,
2013-03-22 04:32:00,26.0,23.0,30.02,West,261,0.0,1.0,89,0.00,,,0.00,,2013-03-22 11:32:00,
2013-03-22 04:42:00,26.0,23.0,30.02,West,261,0.0,1.0,89,0.00,,,0.00,,2013-03-22 11:42:00,
2013-03-22 04:52:00,26.0,23.0,30.02,West,261,0.0,0.0,90,0.00,,,0.00,,2013-03-22 11:52:00,
2013-03-22 05:02:00,26.0,23.0,30.03,WNW,298,0.0,1.0,89,0.00,,,0.00,,2013-03-22 12:02:00,
2013-03-22 05:12:00,26.0,23.0,30.03,WNW,296,0.0,1.0,90,0.00,,,0.00,,2013-03-22 12:12:00,
2013-03-22 05:22:00,26.0,23.0,30.03,WNW,296,0.0,1.0,90,0.00,,,0.00,,2013-03-22 12:22:00,
2013-03-22 05:32:00,26.0,23.0,30.03,West,269,0.0,2.0,90,0.00,,,0.00,,2013-03-22 12:32:00,
2013-03-22 05:42:00,26.0,23.0,30.03,West,269,0.0,2.0,90,0.00,,,0.00,,2013-03-22 12:42:00,
2013-03-22 05:51:00,26.0,23.0,30.04,West,269,0.0,1.0,90,0.00,,,0.00,,2013-03-22 12:51:00,
2013-03-22 06:02:00,27.0,24.0,30.05,WNW,284,1.0,3.0,89,0.00,,,0.00,,2013-03-22 13:02:00,
2013-03-22 06:12:00,27.0,24.0,30.05,WNW,284,1.0,3.0,89,0.00,,,0.00,,2013-03-22 13:12:00,
2013-03-22 06:22:00,27.0,24.0,30.05,WNW,284,1.0,3.0,89,0.00,,,0.00,,2013-03-22 13:22:00,
2013-03-22 06:32:00,25.0,23.0,30.05,WNW,295,1.0,2.0,92,0.00,,,0.00,,2013-03-22 13:32:00,
2013-03-22 06:42:00,25.0,23.0,30.05,WNW,295,1.0,2.0,92,0.00,,,0.00,,2013-03-22 13:42:00,
2013-03-22 06:52:00,26.0,23.0,30.06,West,273,1.0,3.0,90,0.00,,,0.00,,2013-03-22 13:52:00,
2013-03-22 07:02:00,25.0,22.0,30.06,West,272,0.0,1.0,90,0.00,,,0.00,,2013-03-22 14:02:00,
2013-03-22 07:12:00,25.0,22.0,30.06,West,272,0.0,1.0,90,0.00,,,0.00,,2013-03-22 14:12:00,
2013-03-22 07:21:00,25.0,22.0,30.07,NNE,12,1.0,3.0,90,0.00,,,0.00,,2013-03-22 14:21:00,
2013-03-22 07:32:00,24.0,22.0,30.07,NNW,344,0.0,0.0,91,0.00,,,0.00,,2013-03-22 14:32:00,
2013-03-22 07:42:00,24.0,22.0,30.07,NNW,344,0.0,0.0,91,0.00,,,0.00,,2013-03-22 14:42:00,
2013-03-22 07:52:00,25.0,24.0,30.08,NNE,22,1.0,3.0,94,0.00,,,0.00,,2013-03-22 14:52:00,
2013-03-22 08:02:00,26.0,24.0,30.09,NNE,23,0.0,2.0,92,0.00,,,0.00,,2013-03-22 15:02:00,
2013-03-22 08:12:00,26.0,24.0,30.09,NNE,23,0.0,2.0,92,0.00,,,0.00,,2013-03-22 15:12:00,
2013-03-22 08:22:00,27.0,25.0,30.09,NNE,22,1.0,2.0,91,0.00,,,0.00,,2013-03-22 15:22:00,
2013-03-22 08:32:00,28.0,25.0,30.09,NNE,23,0.0,2.0,89,0.00,,,0.00,,2013-03-22 15:32:00,
2013-03-22 08:42:00,28.0,25.0,30.09,NNE,23,0.0,2.0,89,0.00,,,0.00,,2013-03-22 15:42:00,
2013-03-22 08:52:00,31.0,28.0,30.10,NNE,23,0.0,2.0,89,0.00,,,0.00,,2013-03-22 15:52:00,
2013-03-22 09:02:00,30.0,26.0,30.10,North,4,0.0,2.0,85,0.00,,,0.00,,2013-03-22 16:02:00,
2013-03-22 09:13:00,31.0,28.0,30.10,North,2,0.0,1.0,87,0.00,,,0.00,,2013-03-22 16:13:00,
2013-03-22 09:22:00,31.0,28.0,30.10,North,2,0.0,1.0,87,0.00,,,0.00,,2013-03-22 16:22:00,
2013-03-22 09:32:00,30.0,26.0,30.11,ENE,64,2.0,5.0,86,0.00,,,0.00,,2013-03-22 16:32:00,
2013-03-22 09:42:00,30.0,27.0,30.11,ENE,59,3.0,5.0,87,0.00,,,0.00,,2013-03-22 16:42:00,
2013-03-22 09:52:00,30.0,27.0,30.11,ENE,59,3.0,5.0,87,0.00,,,0.00,,2013-03-22 16:52:00,
2013-03-22 10:02:00,30.0,26.0,30.11,ENE,66,2.0,5.0,86,0.00,,,0.00,,2013-03-22 17:02:00,
2013-03-22 10:12:00,31.0,27.0,30.12,East,87,2.0,4.0,85,0.00,,,0.00,,2013-03-22 17:12:00,
2013-03-22 10:22:00,31.0,27.0,30.12,East,87,2.0,4.0,85,0.00,,,0.00,,2013-03-22 17:22:00,
2013-03-22 10:32:00,32.0,28.0,30.12,ENE,57,2.0,5.0,84,0.00,,,0.00,,2013-03-22 17:32:00,
2013-03-22 10:42:00,32.0,28.0,30.12,ENE,57,2.0,5.0,84,0.00,,,0.00,,2013-03-22 17:42:00,
2013-03-22 10:52:00,32.0,27.0,30.12,ENE,70,1.0,4.0,80,0.00,,,0.00,,2013-03-22 17:52:00,
2013-03-22 11:02:00,33.0,27.0,30.12,NE,46,2.0,6.0,78,0.00,,,0.00,,2013-03-22 18:02:00,
2013-03-22 11:12:00,33.0,27.0,30.12,NE,46,2.0,6.0,78,0.00,,,0.00,,2013-03-22 18:12:00,
2013-03-22 11:21:00,34.0,27.0,30.12,SE,134,3.0,7.0,76,0.00,,,0.00,,2013-03-22 18:21:00,
2013-03-22 11:32:00,35.0,28.0,30.12,NNE,15,0.0,3.0,74,0.00,,,0.00,,2013-03-22 18:32:00,
2013-03-22 11:42:00,35.0,28.0,30.12,NNE,15,0.0,3.0,74,0.00,,,0.00,,2013-03-22 18:42:00,
2013-03-22 11:52:00,35.0,26.0,30.12,SW,227,0.0,6.0,69,0.00,,,0.00,,2013-03-22 18:52:00,
2013-03-22 12:02:00,36.0,26.0,30.12,ENE,77,1.0,7.0,68,0.00,,,0.00,,2013-03-22 19:02:00,
2013-03-22 12:12:00,36.0,26.0,30.12,ENE,77,1.0,7.0,68,0.00,,,0.00,,2013-03-22 19:12:00,
2013-03-22 12:22:00,37.0,26.0,30.12,ENE,69,2.0,6.0,65,0.00,,,0.00,,2013-03-22 19:22:00,
2013-03-22 12:32:00,37.0,25.0,30.12,NNE,16,4.0,7.0,62,0.00,,,0.00,,2013-03-22 19:32:00,
2013-03-22 12:42:00,37.0,25.0,30.12,NNE,16,4.0,7.0,62,0.00,,,0.00,,2013-03-22 19:42:00,
2013-03-22 12:51:00,38.0,26.0,30.12,ENE,61,4.0,7.0,61,0.00,,,0.00,,2013-03-22 19:51:00,
2013-03-22 13:01:00,39.0,27.0,30.12,SSW,210,1.0,7.0,61,0.00,,,0.00,,2013-03-22 20:01:00,
2013-03-22 13:12:00,39.0,27.0,30.12,SSW,210,1.0,7.0,61,0.00,,,0.00,,2013-03-22 20:12:00,
2013-03-22 13:22:00,40.0,26.0,30.12,SW,229,5.0,11.0,58,0.00,,,0.00,,2013-03-22 20:22:00,
2013-03-22 13:32:00,40.0,26.0,30.11,SSW,207,6.0,8.0,58,0.00,,,0.00,,2013-03-22 20:32:00,
2013-03-22 13:42:00,40.0,26.0,30.11,SSW,207,6.0,8.0,58,0.00,,,0.00,,2013-03-22 20:42:00,
2013-03-22 13:51:00,40.0,24.0,30.11,West,265,5.0,11.0,53,0.00,,,0.00,,2013-03-22 20:51:00,
2013-03-22 14:02:00,40.0,22.0,30.11,West,262,2.0,8.0,48,0.00,,,0.00,,2013-03-22 21:02:00,
2013-03-22 14:12:00,40.0,23.0,30.10,SW,232,0.0,6.0,50,0.00,,,0.00,,2013-03-22 21:12:00,
2013-03-22 14:22:00,40.0,23.0,30.10,SW,232,0.0,6.0,50,0.00,,,0.00,,2013-03-22 21:22:00,
2013-03-22 14:32:00,41.0,21.0,30.10,SW,223,4.0,6.0,44,0.00,,,0.00,,2013-03-22 21:32:00,
2013-03-22 14:42:00,41.0,21.0,30.10,SW,223,4.0,6.0,44,0.00,,,0.00,,2013-03-22 21:42:00,
2013-03-22 14:52:00,41.0,23.0,30.10,SSW,204,7.0,9.0,48,0.00,,,0.00,,2013-03-22 21:52:00,
2013-03-22 15:02:00,41.0,23.0,30.11,SSW,211,9.0,17.0,49,0.00,,,0.00,,2013-03-22 22:02:00,
2013-03-22 15:12:00,41.0,23.0,30.11,SSW,211,9.0,17.0,49,0.00,,,0.00,,2013-03-22 22:12:00,
2013-03-22 15:22:00,42.0,23.0,30.10,NW,319,3.0,13.0,46,0.00,,,0.00,,2013-03-22 22:22:00,
2013-03-22 15:32:00,42.0,18.0,30.11,WSW,247,4.0,11.0,38,0.00,,,0.00,,2013-03-22 22:32:00,
2013-03-22 15:42:00,42.0,18.0,30.11,WSW,247,4.0,11.0,38,0.00,,,0.00,,2013-03-22 22:42:00,
2013-03-22 15:52:00,41.0,19.0,30.11,NNE,27,2.0,11.0,40,0.00,,,0.00,,2013-03-22 22:52:00,
2013-03-22 16:02:00,39.0,17.0,30.11,SW,235,2.0,7.0,41,0.00,,,0.00,,2013-03-22 23:02:00,
2013-03-22 16:12:00,39.0,17.0,30.11,SW,235,2.0,7.0,41,0.00,,,0.00,,2013-03-22 23:12:00,
2013-03-22 16:22:00,38.0,18.0,30.11,SW,222,2.0,11.0,44,0.00,,,0.00,,2013-03-22 23:22:00,
2013-03-22 16:32:00,39.0,19.0,30.11,East,81,0.0,6.0,45,0.00,,,0.00,,2013-03-22 23:32:00,
2013-03-22 16:42:00,39.0,19.0,30.11,East,81,0.0,6.0,45,0.00,,,0.00,,2013-03-22 23:42:00,
2013-03-22 16:52:00,41.0,20.0,30.12,SW,225,1.0,8.0,43,0.00,,,0.00,,2013-03-22 23:52:00,
2013-03-22 17:02:00,40.0,19.0,30.12,SW,236,2.0,8.0,42,0.00,,,0.00,,2013-03-23 00:02:00,
2013-03-22 17:12:00,40.0,19.0,30.12,SW,236,2.0,8.0,42,0.00,,,0.00,,2013-03-23 00:12:00,
2013-03-22 17:22:00,40.0,19.0,30.12,SW,236,2.0,8.0,42,0.00,,,0.00,,2013-03-23 00:22:00,
2013-03-22 17:32:00,39.0,19.0,30.13,SSW,203,5.0,14.0,45,0.00,,,0.00,,2013-03-23 00:32:00,
2013-03-22 17:42:00,38.0,19.0,30.14,WSW,238,3.0,11.0,46,0.00,,,0.00,,2013-03-23 00:42:00,
2013-03-22 17:52:00,38.0,19.0,30.14,WSW,238,3.0,11.0,46,0.00,,,0.00,,2013-03-23 00:52:00,
2013-03-22 18:03:00,38.0,20.0,30.15,NE,50,2.0,8.0,48,0.00,,,0.00,,2013-03-23 01:03:00,
2013-03-22 18:11:00,38.0,20.0,30.15,NE,50,2.0,8.0,48,0.00,,,0.00,,2013-03-23 01:11:00,
2013-03-22 18:22:00,37.0,22.0,30.15,SW,224,2.0,7.0,54,0.00,,,0.00,,2013-03-23 01:22:00,
2013-03-22 18:32:00,35.0,24.0,30.16,ENE,57,3.0,8.0,64,0.00,,,0.00,,2013-03-23 01:32:00,
2013-03-22 18:42:00,35.0,24.0,30.16,ENE,57,3.0,8.0,64,0.00,,,0.00,,2013-03-23 01:42:00,
2013-03-22 18:52:00,35.0,23.0,30.16,NW,326,2.0,7.0,62,0.00,,,0.00,,2013-03-23 01:52:00,
2013-03-22 19:02:00,35.0,23.0,30.16,SW,220,0.0,9.0,60,0.00,,,0.00,,2013-03-23 02:02:00,
2013-03-22 19:12:00,35.0,23.0,30.16,SW,220,0.0,9.0,60,0.00,,,0.00,,2013-03-23 02:12:00,
2013-03-22 19:22:00,34.0,23.0,30.16,West,280,0.0,2.0,65,0.00,,,0.00,,2013-03-23 02:22:00,
2013-03-22 19:31:00,34.0,22.0,30.17,NE,44,3.0,4.0,62,0.00,,,0.00,,2013-03-23 02:31:00,
2013-03-22 19:42:00,34.0,22.0,30.17,NE,44,3.0,4.0,62,0.00,,,0.00,,2013-03-23 02:42:00,
2013-03-22 19:52:00,34.0,22.0,30.17,NE,54,1.0,3.0,62,0.00,,,0.00,,2013-03-23 02:52:00,
2013-03-22 20:02:00,34.0,22.0,30.17,West,269,0.0,2.0,62,0.00,,,0.00,,2013-03-23 03:02:00,
2013-03-22 20:12:00,34.0,22.0,30.17,West,269,0.0,2.0,62,0.00,,,0.00,,2013-03-23 03:12:00,
2013-03-22 20:22:00,33.0,22.0,30.18,West,272,0.0,1.0,64,0.00,,,0.00,,2013-03-23 03:22:00,
2013-03-22 20:32:00,32.0,22.0,30.18,West,272,0.0,1.0,67,0.00,,,0.00,,2013-03-23 03:32:00,
2013-03-22 20:43:00,32.0,22.0,30.18,West,272,0.0,1.0,67,0.00,,,0.00,,2013-03-23 03:43:00,
2013-03-22 20:52:00,32.0,23.0,30.18,West,276,0.0,3.0,68,0.00,,,0.00,,2013-03-23 03:52:00,
2013-03-22 21:02:00,31.0,20.0,30.19,West,281,0.0,2.0,63,0.00,,,0.00,,2013-03-23 04:02:00,
2013-03-22 21:12:00,31.0,20.0,30.19,West,281,0.0,2.0,63,0.00,,,0.00,,2013-03-23 04:12:00,
2013-03-22 21:22:00,31.0,19.0,30.19,West,280,0.0,2.0,61,0.00,,,0.00,,2013-03-23 04:22:00,
2013-03-22 21:32:00,30.0,20.0,30.20,West,279,0.0,2.0,66,0.00,,,0.00,,2013-03-23 04:32:00,
2013-03-22 21:43:00,30.0,20.0,30.20,West,279,0.0,2.0,66,0.00,,,0.00,,2013-03-23 04:43:00,
2013-03-22 21:52:00,30.0,20.0,30.20,West,267,1.0,2.0,66,0.00,,,0.00,,2013-03-23 04:52:00,
2013-03-22 22:02:00,30.0,20.0,30.20,West,279,0.0,2.0,65,0.00,,,0.00,,2013-03-23 05:02:00,
2013-03-22 22:12:00,30.0,20.0,30.20,West,279,0.0,2.0,65,0.00,,,0.00,,2013-03-23 05:12:00,
2013-03-22 22:22:00,30.0,19.0,30.21,WNW,288,0.0,2.0,64,0.00,,,0.00,,2013-03-23 05:22:00,
2013-03-22 22:32:00,28.0,21.0,30.21,WNW,290,0.0,0.0,74,0.00,,,0.00,,2013-03-23 05:32:00,
2013-03-22 22:42:00,28.0,21.0,30.21,WNW,290,0.0,0.0,74,0.00,,,0.00,,2013-03-23 05:42:00,
2013-03-22 22:52:00,28.0,21.0,30.22,WNW,287,0.0,1.0,76,0.00,,,0.00,,2013-03-23 05:52:00,
2013-03-22 23:02:00,26.0,20.0,30.22,West,261,0.0,2.0,77,0.00,,,0.00,,2013-03-23 06:02:00,
2013-03-22 23:12:00,26.0,20.0,30.22,West,261,0.0,2.0,77,0.00,,,0.00,,2013-03-23 06:12:00,
2013-03-22 23:22:00,25.0,20.0,30.23,West,279,1.0,2.0,80,0.00,,,0.00,,2013-03-23 06:22:00,
2013-03-22 23:32:00,26.0,20.0,30.23,West,280,0.0,1.0,77,0.00,,,0.00,,2013-03-23 06:32:00,
2013-03-22 23:42:00,26.0,20.0,30.23,West,280,0.0,1.0,77,0.00,,,0.00,,2013-03-23 06:42:00,
2013-03-22 23:51:00,27.0,21.0,30.24,West,280,0.0,1.0,77,0.00,,,0.00,,2013-03-23 06:51:00,